• In Latvia
  • List of Countries
  • For 7 days
  • Water Temperature
  • Satellite Maps
  • Weather Map
  • Weather Widgets
  • user-avatar
    Login

    Hourly Weather Escaldes-Engordany

    Today, 20 January, Saturday

    Time Temperature Precipitation Wind Pressure Humidity
    00:00 -4°C° 0 mm 3 mps 639 mmHg 77%
    01:00 -4°C° 0 mm 3 mps 639 mmHg 77%
    02:00 -3°C° 0 mm 2 mps 639 mmHg 77%
    03:00 -3°C° 0 mm 2 mps 639 mmHg 77%
    04:00 -3°C° 0 mm 2 mps 638 mmHg 76%
    05:00 -3°C° 0 mm 2 mps 638 mmHg 76%
    06:00 -3°C° 0 mm 2 mps 638 mmHg 74%
    07:00 -2°C° 0 mm 2 mps 639 mmHg 72%
    08:00 +1°C° 0 mm 2 mps 639 mmHg 69%
    09:00 +3°C° 0 mm 1 mps 639 mmHg 67%
    10:00 +3°C° 0 mm 2 mps 639 mmHg 66%
    11:00 +4°C° 0 mm 2 mps 639 mmHg 66%
    12:00 +5°C° 0 mm 3 mps 639 mmHg 65%
    13:00 +5°C° 0.2 mm 3 mps 639 mmHg 68%
    14:00 +5°C° 0.2 mm 3 mps 638 mmHg 72%
    15:00 +5°C° 0.2 mm 4 mps 638 mmHg 76%
    16:00 +4°C° 0.8 mm 3 mps 638 mmHg 80%
    17:00 +3°C° 0.8 mm 3 mps 637 mmHg 84%
    18:00 +3°C° 0.8 mm 3 mps 637 mmHg 88%
    19:00 +3°C° 0.4 mm 3 mps 637 mmHg 88%
    20:00 +3°C° 0.4 mm 3 mps 638 mmHg 88%
    21:00 +3°C° 0.4 mm 3 mps 638 mmHg 88%
    22:00 +3°C° 0.4 mm 3 mps 638 mmHg 89%
    23:00 +3°C° 0.4 mm 3 mps 638 mmHg 89%

    Tomorrow, 21 January, Sunday

    Time Temperature Precipitation Wind Pressure Humidity
    00:00 +3°C° 0.4 mm 3 mps 638 mmHg 90%
    01:00 +3°C° 0.4 mm 3 mps 639 mmHg 90%
    02:00 +3°C° 0.4 mm 3 mps 639 mmHg 90%
    03:00 +4°C° 0.4 mm 3 mps 639 mmHg 91%
    04:00 +4°C° 0.4 mm 3 mps 639 mmHg 91%
    05:00 +4°C° 0.4 mm 3 mps 639 mmHg 90%
    06:00 +4°C° 0.4 mm 3 mps 639 mmHg 90%
    07:00 +4°C° 0.4 mm 3 mps 640 mmHg 90%
    08:00 +4°C° 0.4 mm 3 mps 640 mmHg 89%
    09:00 +4°C° 0.4 mm 3 mps 641 mmHg 88%
    10:00 +5°C° 0.4 mm 3 mps 641 mmHg 86%
    11:00 +5°C° 0.4 mm 3 mps 641 mmHg 85%
    12:00 +7°C° 0.4 mm 3 mps 642 mmHg 83%
    13:00 +7°C° 0.6 mm 3 mps 642 mmHg 83%
    14:00 +7°C° 0.6 mm 3 mps 642 mmHg 84%
    15:00 +7°C° 0.6 mm 3 mps 642 mmHg 84%
    16:00 +5°C° 0.3 mm 3 mps 642 mmHg 85%
    17:00 +5°C° 0.3 mm 3 mps 642 mmHg 86%
    18:00 +4°C° 0.3 mm 3 mps 642 mmHg 88%
    19:00 +4°C° 0.1 mm 3 mps 642 mmHg 87%
    20:00 +3°C° 0.1 mm 3 mps 642 mmHg 86%
    21:00 +3°C° 0.1 mm 3 mps 643 mmHg 85%
    22:00 +3°C° 0 mm 3 mps 643 mmHg 84%
    23:00 +3°C° 0 mm 3 mps 643 mmHg 83%

    Day after tomorrow, 22 January, Monday

    Time Temperature Precipitation Wind Pressure Humidity
    00:00 +2°C° 0 mm 3 mps 642 mmHg 83%
    01:00 +2°C° 0 mm 3 mps 642 mmHg 81%
    02:00 +2°C° 0 mm 3 mps 642 mmHg 80%
    03:00 +2°C° 0 mm 3 mps 642 mmHg 79%
    04:00 +1°C° 0 mm 3 mps 642 mmHg 79%
    05:00 +1°C° 0 mm 3 mps 642 mmHg 79%
    06:00 +1°C° 0 mm 3 mps 642 mmHg 78%
    07:00 +2°C° 0 mm 3 mps 642 mmHg 76%
    08:00 +3°C° 0 mm 3 mps 643 mmHg 74%
    09:00 +4°C° 0 mm 3 mps 643 mmHg 72%
    10:00 +5°C° 0 mm 3 mps 644 mmHg 68%
    11:00 +8°C° 0 mm 3 mps 644 mmHg 65%
    12:00 +9°C° 0 mm 3 mps 645 mmHg 61%
    13:00 +9°C° 0 mm 3 mps 644 mmHg 63%
    14:00 +9°C° 0 mm 3 mps 644 mmHg 65%
    15:00 +8°C° 0 mm 3 mps 644 mmHg 67%
    16:00 +7°C° 0 mm 3 mps 643 mmHg 72%
    17:00 +5°C° 0 mm 2 mps 643 mmHg 78%
    18:00 +3°C° 0 mm 2 mps 642 mmHg 84%
    19:00 +3°C° 0 mm 2 mps 643 mmHg 81%
    20:00 +2°C° 0 mm 3 mps 643 mmHg 77%
    21:00 +1°C° 0 mm 3 mps 643 mmHg 74%
    22:00 +2°C° 0 mm 3 mps 643 mmHg 74%
    23:00 +2°C° 0 mm 3 mps 643 mmHg 73%

    23 January, Tuesday

    Time Temperature Precipitation Wind Pressure Humidity
    00:00 +2°C° 0 mm 3 mps 643 mmHg 73%
    01:00 +2°C° 0 mm 3 mps 643 mmHg 76%
    02:00 +2°C° 0 mm 3 mps 643 mmHg 79%
    03:00 +3°C° 0 mm 2 mps 643 mmHg 82%
    04:00 +3°C° 0.1 mm 3 mps 643 mmHg 83%
    05:00 +3°C° 0.1 mm 3 mps 643 mmHg 85%
    06:00 +3°C° 0.1 mm 3 mps 643 mmHg 86%
    07:00 +4°C° 0 mm 2 mps 644 mmHg 85%
    08:00 +5°C° 0 mm 2 mps 644 mmHg 84%
    09:00 +5°C° 0 mm 2 mps 644 mmHg 83%
    10:00 +7°C° 0 mm 2 mps 645 mmHg 78%
    11:00 +8°C° 0 mm 2 mps 645 mmHg 73%
    12:00 +9°C° 0 mm 2 mps 646 mmHg 69%
    13:00 +9°C° 0 mm 2 mps 645 mmHg 70%
    14:00 +9°C° 0 mm 2 mps 645 mmHg 70%
    15:00 +9°C° 0 mm 2 mps 645 mmHg 71%
    16:00 +7°C° 0 mm 2 mps 645 mmHg 77%
    17:00 +7°C° 0 mm 1 mps 644 mmHg 82%
    18:00 +5°C° 0 mm 1 mps 644 mmHg 88%
    19:00 +5°C° 0 mm 1 mps 644 mmHg 87%
    20:00 +5°C° 0 mm 1 mps 644 mmHg 85%
    21:00 +4°C° 0 mm 1 mps 645 mmHg 84%
    22:00 +4°C° 0 mm 1 mps 644 mmHg 83%
    23:00 +4°C° 0 mm 1 mps 644 mmHg 82%

    24 January, Wednesday

    Time Temperature Precipitation Wind Pressure Humidity
    00:00 +4°C° 0 mm 1 mps 644 mmHg 82%
    01:00 +4°C° 0 mm 1 mps 644 mmHg 82%
    02:00 +4°C° 0 mm 1 mps 644 mmHg 83%
    03:00 +4°C° 0 mm 1 mps 644 mmHg 84%
    04:00 +4°C° 0 mm 1 mps 644 mmHg 85%
    05:00 +4°C° 0 mm 1 mps 644 mmHg 85%
    06:00 +4°C° 0 mm 1 mps 644 mmHg 86%
    07:00 +5°C° 0 mm 1 mps 644 mmHg 83%
    08:00 +6°C° 0 mm 1 mps 645 mmHg 81%
    09:00 +7°C° 0 mm 1 mps 645 mmHg 78%
    10:00 +8°C° 0 mm 1 mps 646 mmHg 73%
    11:00 +8°C° 0 mm 2 mps 646 mmHg 68%
    12:00 +10°C° 0 mm 2 mps 646 mmHg 63%
    13:00 +10°C° 0 mm 2 mps 646 mmHg 64%
    14:00 +9°C° 0 mm 2 mps 645 mmHg 65%
    15:00 +9°C° 0 mm 2 mps 645 mmHg 65%
    16:00 +7°C° 0 mm 2 mps 644 mmHg 72%
    17:00 +6°C° 0 mm 1 mps 644 mmHg 79%
    18:00 +5°C° 0 mm 1 mps 643 mmHg 85%
    19:00 +4°C° 0 mm 1 mps 643 mmHg 84%
    20:00 +4°C° 0 mm 1 mps 643 mmHg 82%
    21:00 +4°C° 0 mm 1 mps 643 mmHg 80%
    22:00 +3°C° 0 mm 1 mps 643 mmHg 78%
    23:00 +3°C° 0 mm 1 mps 643 mmHg 77%

    25 January, Thursday

    Time Temperature Precipitation Wind Pressure Humidity
    00:00 +3°C° 0 mm 1 mps 642 mmHg 75%
    01:00 +3°C° 0 mm 1 mps 642 mmHg 75%
    02:00 +3°C° 0 mm 1 mps 642 mmHg 74%
    03:00 +3°C° 0 mm 1 mps 641 mmHg 74%
    04:00 +3°C° 0 mm 1 mps 641 mmHg 75%
    05:00 +2°C° 0 mm 1 mps 641 mmHg 75%
    06:00 +2°C° 0 mm 1 mps 640 mmHg 75%
    07:00 +2°C° 0 mm 2 mps 641 mmHg 73%
    08:00 +3°C° 0 mm 2 mps 641 mmHg 70%
    09:00 +4°C° 0 mm 2 mps 641 mmHg 68%
    10:00 +5°C° 0 mm 2 mps 641 mmHg 64%
    11:00 +7°C° 0 mm 2 mps 641 mmHg 59%
    12:00 +8°C° 0 mm 2 mps 641 mmHg 55%
    13:00 +8°C° 0 mm 2 mps 641 mmHg 55%
    14:00 +7°C° 0 mm 2 mps 640 mmHg 56%
    15:00 +7°C° 0 mm 3 mps 639 mmHg 57%
    16:00 +5°C° 0 mm 2 mps 639 mmHg 65%
    17:00 +4°C° 0 mm 2 mps 638 mmHg 72%
    18:00 +3°C° 0 mm 1 mps 638 mmHg 80%
    19:00 +3°C° 0.2 mm 1 mps 638 mmHg 82%
    20:00 +3°C° 0.2 mm 1 mps 638 mmHg 84%
    21:00 +2°C° 0.2 mm 1 mps 638 mmHg 85%
    22:00 +2°C° 0.3 mm 1 mps 638 mmHg 86%
    23:00 +2°C° 0.3 mm 1 mps 638 mmHg 87%
    Show more